Location: Recife
(8.0585°S, 34.8848°W)
Time: 10:46:20
(UTC-03:00)

Transit 4A - Pass Details

Date: 17 April 2026
Orbit: 861 x 980 km, 66.8° (Epoch: 14 May)

Event Time Altitude Azimuth Distance (km) Brightness Sun altitude
Rises 11:56:35 0° 203° (SSW) 3,443 10.7 69.1°
Reaches altitude 10° 11:59:02 10° 204° (SSW) 2,507 10.2 68.8°
Maximum altitude 12:04:49 78° 289° (WNW) 893 9.9 68.1°
Drops below altitude 10° 12:10:41 10° 16° (NNE) 2,542 10.6 67.3°
Sets 12:13:12 0° 17° (NNE) 3,495 11.1 67.0°
